This is the latest recevied weather packets stored in our database for station/object IN3ISU-13. If no packets are shown the sender has not sent any weather packets the latest 10 day(s).
| Time | Temp. | Humidity | Pressure | Rain* | Wind** | Luminosity | Snow |
|---|---|---|---|---|---|---|---|
| 1788528603 | 32.78° C | 31% | 1018 hPa | 0 mm | - | - | - |
| 1788525002 | 30° C | 37% | 1019 hPa | 0 mm | - | - | - |
| 1788521402 | 28.33° C | 47% | 1019 hPa | 0 mm | - | - | - |
| 1788517802 | 27.22° C | 48% | 1020 hPa | 0 mm | - | - | - |
| 1788514203 | 26.67° C | 45% | 1020 hPa | 0 mm | - | - | - |
| 1788510603 | 25.56° C | 47% | 1021 hPa | 0 mm | - | - | - |
| 1788508802 | 25° C | 57% | 1021 hPa | 0 mm | - | - | - |
| 1788507002 | 21.11° C | 61% | 1022 hPa | 0 mm | - | - | - |
| 1788503402 | 19.44° C | 61% | 1021 hPa | 0 mm | - | - | - |
| 1788501602 | 18.89° C | 62% | 1022 hPa | 0 mm | - | - | - |
| 1788499802 | 18.89° C | 61% | 1022 hPa | 0 mm | - | - | - |
| 1788498002 | 18.89° C | 61% | 1022 hPa | 0 mm | - | - | - |
| 1788496202 | 19.44° C | 61% | 1022 hPa | 0 mm | - | - | - |
| 1788494402 | 20° C | 60% | 1022 hPa | 0 mm | - | - | - |
| 1788492603 | 20° C | 60% | 1022 hPa | 0 mm | - | - | - |
| 1788474602 | 22.22° C | 56% | 1021 hPa | 0 mm | - | - | - |
| 1788471002 | 23.33° C | 51% | 1022 hPa | 0 mm | - | - | - |
| 1788469202 | 23.33° C | 45% | 1022 hPa | 0 mm | - | - | - |
| 1788467402 | 23.33° C | 32% | 1022 hPa | 0 mm | - | - | - |
| 1788465602 | 23.89° C | 30% | 1021 hPa | 0 mm | - | - | - |
| 1788442202 | 31.67° C | 29% | 1019 hPa | 0 mm | - | - | - |
| 1788433203 | 27.22° C | 44% | 1020 hPa | 0 mm | - | - | - |
| 1788431402 | 26.67° C | 46% | 1020 hPa | 0 mm | - | - | - |
| 1788429602 | 26.11° C | 45% | 1021 hPa | 0 mm | - | - | - |
| 1788427803 | 25° C | 53% | 1021 hPa | 0 mm | - | - | - |
* Rain latest hour (hover to see other rain measurements)
** Current wind speed in m/s (hover to see current wind gust speed)